This is the latest recevied weather packets stored in our database for station/object KI4MRC. If no packets are shown the sender has not sent any weather packets the latest 10 day(s).
| Time | Temp. | Humidity | Pressure | Rain* | Wind** | Luminosity | Snow |
|---|---|---|---|---|---|---|---|
| 1777731375 | 30.56° C | 67% | 1011.5 hPa | 0 mm | - | 614 W/m² | - |
| 1777731072 | 30° C | 71% | 1011.7 hPa | 0 mm | - | 560 W/m² | - |
| 1777730771 | 30° C | 71% | 1011.6 hPa | 0 mm | - | 527 W/m² | - |
| 1777730466 | 30.56° C | 73% | 1011.4 hPa | 0 mm | - | 504 W/m² | - |
| 1777730162 | 30° C | 73% | 1011.5 hPa | 0 mm | - | 545 W/m² | - |
| 1777729859 | 30° C | 75% | 1011.6 hPa | 0 mm | - | 511 W/m² | - |
| 1777729556 | 30° C | 75% | 1011.7 hPa | 0 mm | - | 395 W/m² | - |
| 1777729253 | 30° C | 75% | 1011.5 hPa | 0 mm | - | 508 W/m² | - |
| 1777728949 | 29.44° C | 77% | 1011.3 hPa | 0 mm | - | 470 W/m² | - |
| 1777728646 | 28.89° C | 77% | 1011.3 hPa | 0 mm | - | 438 W/m² | - |
| 1777728343 | 28.89° C | 79% | 1011.2 hPa | 0 mm | - | 381 W/m² | - |
| 1777728040 | 28.89° C | 78% | 1011.6 hPa | 0 mm | - | 333 W/m² | - |
| 1777727737 | 28.33° C | 80% | 1011.4 hPa | 0 mm | - | 357 W/m² | - |
| 1777727434 | 28.33° C | 80% | 1011.4 hPa | 0 mm | - | 282 W/m² | - |
| 1777727131 | 28.33° C | 81% | 1011.6 hPa | 0 mm | - | 316 W/m² | - |
| 1777726829 | 27.78° C | 82% | 1011.6 hPa | 0 mm | - | 299 W/m² | - |
| 1777726526 | 27.78° C | 82% | 1011.7 hPa | 0 mm | - | 247 W/m² | - |
| 1777726223 | 27.22° C | 84% | 1011.5 hPa | 0 mm | - | 271 W/m² | - |
| 1777725919 | 26.67° C | 85% | 1011.6 hPa | 0 mm | - | 206 W/m² | - |
| 1777725617 | 26.11° C | 86% | 1011.7 hPa | 0 mm | - | 170 W/m² | - |
| 1777725315 | 25.56° C | 87% | 1011.7 hPa | 0 mm | - | 155 W/m² | - |
| 1777725011 | 25.56° C | 88% | 1011.6 hPa | 0 mm | - | 128 W/m² | - |
| 1777724405 | 25° C | 89% | 1011.6 hPa | 0 mm | - | 90 W/m² | - |
| 1777724102 | 25° C | 90% | 1011.7 hPa | 0 mm | - | 105 W/m² | - |
| 1777723800 | 24.44° C | 92% | 1011.4 hPa | 0 mm | - | 114 W/m² | - |
* Rain latest hour (hover to see other rain measurements)
** Current wind speed in m/s (hover to see current wind gust speed)